Waarnemingen

Advertentie
Mijn weer
Kleine Brogel, België (6479): temperatuur & dauwpunt: 11.01.2020 21:00:00 - 17.01.2020 21:00:00 (CET)Kleine Brogel, België (6479): windsnelheid & windstoten: 11.01.2020 21:00:00 - 17.01.2020 21:00:00 (CET)Kleine Brogel, België (6479): windrichting: 11.01.2020 21:00:00 - 17.01.2020 21:00:00 (CET)Kleine Brogel, België (6479): luchtdruk: 11.01.2020 21:00:00 - 17.01.2020 21:00:00 (CET)Kleine Brogel, België (6479): zicht: 11.01.2020 21:00:00 - 17.01.2020 21:00:00 (CET)
Datum & Tijd tt [°C] td [°C] ff [km/u] ff [kn] fx [km/u] fx [kn] dd ppp [hPa] vv [km]
17.01.2020 21:00:00 - - - - - - - - -
17.01.2020 20:00:00 7,1 2,3 22 12 36 19 WZW 1018,5 20
17.01.2020 19:00:00 8,2 3,3 22 12 - - WZW 1017,3 20
17.01.2020 18:00:00 8,4 4,1 25 14 36 19 WZW 1016,2 20
17.01.2020 17:00:00 9,0 6,3 15 8 25 14 ZZW 1015,2 10
17.01.2020 16:00:00 9,5 7,2 14 8 - - ZW 1014,8 15
17.01.2020 15:00:00 9,3 7,4 14 8 25 14 ZW 1014,6 10
17.01.2020 14:00:00 8,8 7,6 14 8 25 14 ZZW 1014,5 8
17.01.2020 13:00:00 8,6 7,3 14 8 - - ZZW 1014,7 10
17.01.2020 12:00:00 9,3 6,3 18 10 40 21 ZZW 1015,0 20
17.01.2020 11:00:00 9,8 5,3 18 10 29 16 ZZW 1015,1 20
17.01.2020 10:00:00 9,9 4,8 14 8 - - ZZW 1015,0 20
17.01.2020 09:00:00 9,6 4,7 11 6 22 12 ZZW 1015,0 20
17.01.2020 08:00:00 9,1 4,6 11 6 22 12 Z 1015,1 20
17.01.2020 07:00:00 8,4 4,1 9 5 - - Z 1015,2 10
17.01.2020 06:00:00 9,1 4,2 7 4 18 10 Z 1015,2 20
17.01.2020 05:00:00 9,5 4,2 7 4 25 14 Z 1015,5 16
17.01.2020 04:00:00 9,3 4,3 11 6 - - Z 1016,2 13
17.01.2020 03:00:00 9,1 3,9 11 6 25 14 Z 1017,1 20
17.01.2020 02:00:00 9,6 3,8 11 6 22 12 Z 1017,6 20
17.01.2020 01:00:00 7,7 3,6 7 4 - - ZO 1018,3 20
17.01.2020 00:00:00 7,9 4,4 4 2 14 8 N 1018,7 16
16.01.2020 23:00:00 4,5 3,8 4 2 7 4 N 1019,2 17
16.01.2020 22:00:00 7,1 5,0 4 2 - - N 1019,7 20
16.01.2020 21:00:00 7,4 5,0 4 2 14 8 N 1020,1 20
16.01.2020 20:00:00 8,0 5,2 4 2 11 6 N 1020,7 20
16.01.2020 19:00:00 7,8 4,9 4 2 - - N 1021,7 20
16.01.2020 18:00:00 8,6 5,2 4 2 11 6 N 1021,7 20
16.01.2020 17:00:00 9,4 5,5 4 2 11 6 N 1022,0 20
16.01.2020 16:00:00 10,8 6,1 7 4 - - Z 1022,5 20
16.01.2020 15:00:00 11,8 6,0 11 6 25 14 Z 1022,7 20
16.01.2020 14:00:00 11,6 6,4 11 6 22 12 Z 1023,5 20
16.01.2020 13:00:00 10,6 6,1 11 6 - - Z 1024,2 15
16.01.2020 12:00:00 9,7 6,4 7 4 22 12 Z 1025,2 15
16.01.2020 11:00:00 7,4 5,2 4 2 11 6 N 1025,5 15
16.01.2020 10:00:00 3,8 3,3 4 2 - - N 1025,9 15
16.01.2020 09:00:00 1,6 1,5 2 1 7 4 - 1026,4 2,0
16.01.2020 08:00:00 2,2 2,2 4 2 7 4 N 1026,2 10
16.01.2020 07:00:00 3,0 2,8 2 1 - - - 1026,0 10
16.01.2020 06:00:00 3,7 3,1 4 2 11 6 N 1025,7 16
16.01.2020 05:00:00 3,5 2,9 7 4 14 8 N 1025,5 19
16.01.2020 04:00:00 4,6 3,8 7 4 - - ZZW 1025,4 20
16.01.2020 03:00:00 4,4 3,8 11 6 14 8 ZZW 1024,9 17
16.01.2020 02:00:00 4,8 4,0 7 4 11 6 ZZW 1024,2 19
16.01.2020 01:00:00 4,6 3,6 4 2 - - N 1023,7 20
16.01.2020 00:00:00 6,0 4,3 7 4 18 10 ZW 1023,0 20
15.01.2020 23:00:00 6,1 4,8 7 4 14 8 ZW 1021,7 20
15.01.2020 22:00:00 6,6 4,7 11 6 - - ZW 1020,7 20
15.01.2020 21:00:00 7,4 5,6 11 6 25 14 ZW 1019,7 19
15.01.2020 20:00:00 8,0 6,5 14 8 25 14 WZW 1018,2 20
15.01.2020 19:00:00 8,7 7,6 14 8 - - W 1016,7 20
15.01.2020 18:00:00 9,3 7,9 22 12 43 23 ZW 1015,0 20
15.01.2020 17:00:00 10,2 6,9 25 14 47 25 ZW 1013,3 10
15.01.2020 16:00:00 11,3 5,5 22 12 - - ZZW 1012,2 10
15.01.2020 15:00:00 12,0 4,9 25 14 47 25 ZZW 1011,2 20
15.01.2020 14:00:00 12,6 4,5 25 14 47 25 ZZW 1010,2 20
15.01.2020 13:00:00 11,8 4,3 22 12 - - ZZW 1010,2 20
15.01.2020 12:00:00 11,5 4,3 25 14 43 23 Z 1010,1 20
15.01.2020 11:00:00 10,6 3,8 22 12 40 21 ZZW 1010,3 20
15.01.2020 10:00:00 9,8 3,7 22 12 - - ZZW 1010,1 20
15.01.2020 09:00:00 9,8 3,9 22 12 36 19 ZZW 1010,0 20
15.01.2020 08:00:00 10,2 4,1 18 10 36 19 ZZW 1009,5 20
15.01.2020 07:00:00 10,5 4,4 21 11 - - ZZW 1009,5 10
15.01.2020 06:00:00 10,8 4,8 18 10 43 23 ZZW 1009,0 20
15.01.2020 05:00:00 10,8 5,3 25 14 47 25 ZZW 1009,0 20
15.01.2020 04:00:00 11,0 6,1 25 14 - - ZZW 1009,0 20
15.01.2020 03:00:00 11,0 6,7 22 12 47 25 ZZW 1008,8 20
15.01.2020 02:00:00 11,3 6,8 25 14 47 25 ZZW 1008,8 20
15.01.2020 01:00:00 11,1 6,4 29 16 - - ZZW 1008,7 20
15.01.2020 00:00:00 11,6 5,8 29 16 58 31 ZZW 1008,3 20
14.01.2020 23:00:00 11,9 5,8 36 19 68 37 ZZW 1008,0 20
14.01.2020 22:00:00 11,8 5,8 32 18 - - ZZW 1007,5 20
14.01.2020 21:00:00 11,0 6,3 32 18 54 29 ZZW 1007,2 20
14.01.2020 20:00:00 10,6 7,8 25 14 50 27 ZZW 1007,2 20
14.01.2020 19:00:00 11,1 7,5 29 16 - - ZZW 1006,8 20
14.01.2020 18:00:00 10,8 6,8 32 18 54 29 ZZW 1006,6 20
14.01.2020 17:00:00 10,8 6,2 29 16 50 27 ZZW 1006,5 20
14.01.2020 16:00:00 10,6 5,7 29 16 - - ZZW 1006,3 20
14.01.2020 15:00:00 10,6 6,2 22 12 50 27 ZZW 1005,7 20
14.01.2020 14:00:00 10,6 6,5 29 16 54 29 ZZW 1006,1 20
14.01.2020 13:00:00 10,3 6,3 32 18 - - ZZW 1006,7 20
14.01.2020 12:00:00 9,8 6,1 29 16 50 27 ZW 1007,1 20
14.01.2020 11:00:00 10,1 6,3 29 16 58 31 ZW 1006,8 20
14.01.2020 10:00:00 10,3 5,7 36 19 - - ZW 1006,2 20
14.01.2020 09:00:00 10,1 5,5 32 18 58 31 ZZW 1005,7 20
14.01.2020 08:00:00 10,3 6,4 32 18 58 31 ZZW 1005,2 20
14.01.2020 07:00:00 9,8 6,9 22 12 - - ZZW 1004,3 10
14.01.2020 06:00:00 9,3 7,1 29 16 47 25 ZZW 1004,7 14
14.01.2020 05:00:00 9,6 6,9 29 16 50 27 ZZW 1004,5 20
14.01.2020 04:00:00 10,1 7,0 22 12 - - ZZW 1005,0 20
14.01.2020 03:00:00 10,6 6,8 22 12 47 25 ZZW 1005,5 20
14.01.2020 02:00:00 10,3 6,8 22 12 50 27 ZZW 1006,2 20
14.01.2020 01:00:00 10,5 6,7 25 14 - - ZZW 1006,8 20
14.01.2020 00:00:00 10,2 6,8 22 12 40 21 ZZW 1007,3 20
13.01.2020 23:00:00 9,8 6,9 18 10 43 23 Z 1007,8 20
13.01.2020 22:00:00 9,6 6,6 22 12 - - Z 1008,6 20
13.01.2020 21:00:00 9,1 6,2 18 10 36 19 ZZW 1010,1 20
13.01.2020 20:00:00 8,8 5,9 18 10 32 18 Z 1010,8 20
13.01.2020 19:00:00 8,5 5,4 14 8 - - Z 1011,6 15
13.01.2020 18:00:00 8,1 5,1 14 8 29 16 Z 1012,5 15
13.01.2020 17:00:00 8,1 4,5 11 6 22 12 Z 1013,3 15
13.01.2020 16:00:00 8,3 3,9 11 6 - - Z 1014,6 16
13.01.2020 15:00:00 8,6 3,7 18 10 32 18 ZZW 1015,5 16
13.01.2020 14:00:00 9,1 3,9 14 8 29 16 ZZW 1016,0 16
13.01.2020 13:00:00 8,2 5,7 14 8 - - Z 1017,3 16
13.01.2020 12:00:00 7,4 5,5 7 4 18 10 ZZW 1019,1 16
13.01.2020 11:00:00 6,1 4,6 7 4 11 6 ZZW 1019,7 16
13.01.2020 10:00:00 5,6 4,4 7 4 - - ZW 1020,2 16
13.01.2020 09:00:00 4,8 3,8 7 4 18 10 ZZW 1020,2 16
13.01.2020 08:00:00 5,5 4,4 7 4 14 8 ZZW 1020,2 16
13.01.2020 07:00:00 5,8 4,7 7 4 - - ZZW 1020,8 16
13.01.2020 06:00:00 6,3 5,0 14 8 22 12 ZZW 1021,1 19
13.01.2020 05:00:00 6,5 5,2 11 6 18 10 ZZW 1021,7 19
13.01.2020 04:00:00 6,3 5,3 11 6 - - ZZW 1022,2 13
13.01.2020 03:00:00 6,2 5,2 11 6 25 14 ZZW 1022,7 12
13.01.2020 02:00:00 7,0 5,5 11 6 22 12 ZZW 1023,0 20
13.01.2020 01:00:00 7,3 5,7 18 10 - - ZW 1023,2 19
13.01.2020 00:00:00 7,4 5,9 14 8 22 12 ZW 1023,1 20
12.01.2020 23:00:00 7,1 5,9 16 9 25 14 ZW 1023,2 10
12.01.2020 22:00:00 7,7 6,1 14 8 - - ZW 1022,8 20
12.01.2020 21:00:00 7,5 6,1 14 8 29 16 ZW 1022,6 20
12.01.2020 20:00:00 8,1 6,4 21 11 32 18 ZW 1022,2 10
12.01.2020 19:00:00 8,3 6,2 22 12 - - ZW 1021,8 20
12.01.2020 18:00:00 8,3 6,1 18 10 36 19 ZZW 1021,5 20
12.01.2020 17:00:00 8,1 6,1 25 14 43 23 ZW 1020,8 20
12.01.2020 16:00:00 8,0 6,1 25 14 - - ZW 1020,5 16
12.01.2020 15:00:00 7,6 6,0 29 16 47 25 ZW 1020,2 19
12.01.2020 14:00:00 6,6 5,9 25 14 47 25 ZW 1020,5 18
12.01.2020 13:00:00 6,1 5,5 25 14 - - ZW 1020,8 6
12.01.2020 12:00:00 6,9 3,6 25 14 43 23 ZZW 1021,2 20
12.01.2020 11:00:00 6,6 3,0 25 14 43 23 ZZW 1021,5 20
12.01.2020 10:00:00 5,5 2,1 14 8 - - ZZW 1021,6 20
12.01.2020 09:00:00 4,6 1,7 18 10 32 18 ZZW 1021,6 20
12.01.2020 08:00:00 4,4 1,5 22 12 36 19 ZZW 1022,2 20
12.01.2020 07:00:00 4,5 1,3 22 12 - - ZZW 1022,7 20
12.01.2020 06:00:00 4,3 1,3 22 12 36 19 ZZW 1023,3 20
12.01.2020 05:00:00 4,1 1,0 18 10 36 19 ZZW 1024,0 20
12.01.2020 04:00:00 4,1 1,2 18 10 - - ZZW 1024,4 20
12.01.2020 03:00:00 3,9 1,1 18 10 32 18 ZZW 1025,0 20
12.01.2020 02:00:00 4,0 1,2 18 10 29 16 ZZW 1025,4 20
12.01.2020 01:00:00 3,9 1,2 18 10 - - ZZW 1026,2 20
12.01.2020 00:00:00 4,2 1,4 18 10 29 16 ZZW 1026,7 20
11.01.2020 23:00:00 4,3 1,4 18 10 36 19 ZZW 1027,0 20
11.01.2020 22:00:00 4,5 1,7 18 10 - - ZZW 1027,7 20
11.01.2020 21:00:00 4,8 1,7 18 10 32 18 ZZW 1028,2 20

tt = temperatuur
td = dauwpunt
ff = windsnelheid
fx = windstoten
dd = windrichting
ppp = luchtdruk
vv = zicht

Weerstations in de omgeving